Starlink 11579

operational
NORAD ID: 63143 Int'l Des: 2025-043 Owner: SPXS Country: US Constellation: starlink
LEOCIRCULAR

Starlink 11579について

説明を読み込み中...

リアルタイム位置

3D地球を読み込み中...

次回通過

高度履歴

Altitude vs Time

uPlot chart will show altitude changes over time

軌道要素

1 63143U 25043M 25258.37641817 .00439960 00000-0 32331-2 0 9995
2 63143 43.0011 227.1102 0002339 280.2454 79.8150 15.70994053 31787
Epoch: Sep 15, 2025 • Age: 17 hours

現在のステータス

高度 353.4 km
速度 7.70 km/s
衛星直下点 9.41°N, 150.33°W
打ち上げ日 Mar 3, 2025
運用期間 0.5 years
タイプ internet

技術仕様

分類 Payload
質量 960.00 kg
乾燥質量 910.00 kg
総質量 960.00 kg
長さ 0.30 m
直径 4.10 m
スパン 29.00 m
形状 Box + pan
製造者 SPXS
バスタイプ Starlink V2MD
フェーズステータス In Orbit
所有者/国 SPXS/US

大規模コンステレーション

Loading constellations...